TimeCST,TemperatureF,Dew PointF,Humidity,Sea Level PressureIn,VisibilityMPH,Wind Direction,Wind SpeedMPH,Gust SpeedMPH,PrecipitationIn,Events,Conditions,WindDirDegrees,DateUTC
12:00 AM,82,77,79,29.96,12,East,9.2,,,,Mostly Cloudy,90,2013-07-08 06:00:00
3:00 AM,79,75,84,29.93,12,Calm,Calm,,,,Scattered Clouds,,2013-07-08 09:00:00
5:00 AM,78.8,75.2,89,29.92,6.2,Calm,Calm,-,N/A,,Mostly Cloudy,0,2013-07-08 11:00:00
6:00 AM,78,75,88,29.96,12,Calm,Calm,,,,Scattered Clouds,,2013-07-08 12:00:00
6:00 AM,78.8,75.2,89,29.95,6.2,Calm,Calm,-,N/A,,Mostly Cloudy,0,2013-07-08 12:00:00
7:00 AM,82.4,77.0,84,29.95,6.2,Calm,Calm,-,N/A,,Scattered Clouds,0,2013-07-08 13:00:00
8:00 AM,84.2,75.2,74,29.98,6.2,East,11.5,-,N/A,,Scattered Clouds,100,2013-07-08 14:00:00
9:00 AM,85,75,65,30.00,12,East,8.1,,,,Partly Cloudy,100,2013-07-08 15:00:00
9:00 AM,84.2,75.2,74,30.00,6.2,East,8.1,-,N/A,,Mostly Cloudy,100,2013-07-08 15:00:00
10:00 AM,86.0,75.2,70,30.00,6.2,East,6.9,-,N/A,,Mostly Cloudy,90,2013-07-08 16:00:00
11:00 AM,87.8,75.2,66,30.00,6.2,ENE,9.2,-,N/A,,Mostly Cloudy,70,2013-07-08 17:00:00
12:00 PM,87,75,60,30.00,14,ENE,9.2,,,,Partly Cloudy,60,2013-07-08 18:00:00
12:00 PM,87.8,75.2,66,29.99,6.2,ENE,9.2,-,N/A,,Scattered Clouds,60,2013-07-08 18:00:00
1:00 PM,87.8,75.2,66,29.98,6.2,ENE,10.4,-,N/A,,Scattered Clouds,70,2013-07-08 19:00:00
2:00 PM,87.8,75.2,66,29.96,6.2,East,9.2,-,N/A,,Scattered Clouds,80,2013-07-08 20:00:00
3:00 PM,87,76,63,29.96,14,East,8.1,,,,Partly Cloudy,90,2013-07-08 21:00:00
3:00 PM,87.8,77.0,70,29.95,6.2,East,8.1,-,N/A,,Scattered Clouds,90,2013-07-08 21:00:00
4:00 PM,87.8,75.2,66,29.94,6.2,East,6.9,-,N/A,,Scattered Clouds,80,2013-07-08 22:00:00
5:00 PM,86.0,73.4,66,29.95,6.2,East,8.1,-,N/A,,Scattered Clouds,90,2013-07-08 23:00:00
6:00 PM,84,74,65,29.97,14,East,6.9,,,,Scattered Clouds,100,2013-07-09 00:00:00
6:00 PM,84.2,73.4,70,29.96,6.2,East,6.9,-,N/A,,Mostly Cloudy,100,2013-07-09 00:00:00
9:00 PM,80,76,82,30.02,12,ESE,3.5,,,,Scattered Clouds,110,2013-07-09 03:00:00